Weather History for Effingham, IL

Change the Weather History Date:

Thursday, November 21, 2013

  Actual Average (KMTO) Record (KMTO)
Temperature  
Mean Temperature 48 °F 41 °F  
Max Temperature 50 °F 49 °F 71 °F (1990)
Min Temperature 46 °F 33 °F 11 °F (1964)
Degree Days  
Heating Degree Days 17 24  
Month to date heating degree days 415  
Since 1 July heating degree days 819  
Cooling Degree Days 0 0  
Month to date cooling degree days 0  
Year to date cooling degree days 1057  
Moisture  
Dew Point 43 °F    
Average Humidity 81    
Maximum Humidity 94    
Minimum Humidity 56    
Precipitation  
Precipitation 0.68 in 0.11 in 0.77 in (1982)
Month to date precipitation 2.47  
Year to date precipitation 34.27  
Sea Level Pressure  
Sea Level Pressure 30.17 in    
Wind  
Wind Speed 6 mph (SSE)    
Max Wind Speed 14 mph    
Max Gust Speed -    
Visibility 6 miles    
Events Fog , Rain    
T = Trace of Precipitation, MM = Missing Value Source: NWS Daily Summary

Daily Weather History Graph

Daily Weather History Graph

Search for Another Location

Airport:

Trip Planner

Search our weather history database for the weather conditions in past years. The results will help you decide how hot, cold, wet, or windy it might be!

Date:

Astronomy

Nov. 21, 2013 Rise Set
Actual Time 6:44 AM CST 4:35 PM CST
Civil Twilight 6:15 AM CST 5:04 PM CST
Nautical Twilight 5:42 AM CST 5:37 PM CST
Astronomical Twilight 5:10 AM CST 6:09 PM CST
Moon 8:12 PM CST 9:50 AM CST
Length of Visible Light 10h 49m
Length of Day
9h 51m
Waning Gibbous, 85% of the Moon is Illuminated
Nov 21
Waning Gibbous
Nov 25
Last Quarter
Dec 2
New
Dec 9
First Quarter
Dec 17
Full

Hourly Weather History & Observations

Time (CST) Temp. Windchill Dew Point Humidity Pressure Visibility Wind Dir Wind Speed Gust Speed Precip Events Conditions
12:15 AM 48.6 °F - 34.2 °F 58% 30.14 in 10.0 mi South 4.6 mph - N/A Rain Light Rain
12:35 AM 49.1 °F - 34.3 °F 57% 30.13 in 10.0 mi SSE 8.1 mph - N/A   Overcast
12:55 AM 49.6 °F - 34.3 °F 56% 30.14 in 10.0 mi SSE 6.9 mph - N/A   Overcast
1:15 AM 49.6 °F - 34.7 °F 56% 30.14 in 10.0 mi SSE 8.1 mph - N/A Rain Light Rain
1:35 AM 48.2 °F - 36.7 °F 64% 30.11 in 10.0 mi SE 13.8 mph - N/A Rain Light Rain
1:55 AM 48.2 °F - 36.7 °F 64% 30.13 in 10.0 mi SSE 6.9 mph - N/A Rain Light Rain
2:15 AM 48.6 °F - 36.0 °F 62% 30.13 in 10.0 mi SSE 8.1 mph - N/A   Overcast
2:35 AM 48.7 °F - 35.8 °F 61% 30.13 in 10.0 mi SE 8.1 mph - N/A   Mostly Cloudy
2:55 AM 48.6 °F - 35.6 °F 61% 30.12 in 10.0 mi SSE 6.9 mph - N/A   Mostly Cloudy
3:15 AM 48.9 °F - 35.1 °F 59% 30.13 in 10.0 mi South 4.6 mph - N/A Rain Light Rain
3:35 AM 49.1 °F - 35.4 °F 59% 30.14 in 10.0 mi Calm Calm - N/A   Overcast
3:55 AM 48.4 °F - 35.6 °F 61% 30.14 in 10.0 mi SE 3.5 mph - N/A   Overcast
4:15 AM 47.3 °F - 37.0 °F 68% 30.14 in 10.0 mi SE 3.5 mph - N/A   Overcast
4:35 AM 47.8 °F - 36.0 °F 63% 30.14 in 10.0 mi Calm Calm - N/A   Overcast
4:55 AM 48.2 °F - 36.1 °F 63% 30.15 in 10.0 mi SSE 3.5 mph - N/A   Overcast
5:15 AM 48.6 °F - 36.0 °F 62% 30.15 in 10.0 mi SSE 4.6 mph - N/A   Overcast
5:35 AM 49.3 °F - 35.8 °F 60% 30.15 in 10.0 mi South 4.6 mph - N/A   Overcast
5:55 AM 49.5 °F - 35.6 °F 59% 30.16 in 10.0 mi SSE 4.6 mph - N/A   Overcast
6:15 AM 49.5 °F - 35.8 °F 59% 30.17 in 10.0 mi South 4.6 mph - N/A   Overcast
6:35 AM 49.5 °F - 36.0 °F 60% 30.18 in 10.0 mi SSE 6.9 mph - N/A   Overcast
6:55 AM 49.5 °F - 36.1 °F 60% 30.18 in 10.0 mi SSE 8.1 mph - N/A   Overcast
7:15 AM 49.1 °F - 37.6 °F 64% 30.20 in 10.0 mi South 8.1 mph - N/A Rain Light Rain
7:35 AM 47.1 °F - 39.9 °F 76% 30.20 in 10.0 mi SSE 6.9 mph - 0.01 in Rain Rain
7:55 AM 46.4 °F 41.9 °F 40.6 °F 80% 30.19 in 10.0 mi SSE 9.2 mph - 0.03 in Rain Light Rain
8:15 AM 46.4 °F 42.4 °F 41.9 °F 84% 30.19 in 10.0 mi SSE 8.1 mph - 0.03 in Rain Rain
8:35 AM 46.4 °F 43.5 °F 42.1 °F 85% 30.19 in 10.0 mi SSE 5.8 mph - 0.04 in Rain Light Rain
8:55 AM 46.4 °F 42.9 °F 42.8 °F 87% 30.20 in 10.0 mi SSE 6.9 mph - 0.05 in Rain Light Rain
9:15 AM 46.6 °F - 43.0 °F 87% 30.21 in 10.0 mi South 8.1 mph - 0.01 in Rain Rain
9:35 AM 46.6 °F - 43.2 °F 88% 30.20 in 7.0 mi SE 9.2 mph - 0.03 in Rain Rain
9:55 AM 46.8 °F - 43.3 °F 88% 30.19 in 10.0 mi SE 9.2 mph - 0.04 in Rain Light Rain
10:15 AM 46.9 °F - 43.3 °F 87% 30.20 in 10.0 mi SSE 8.1 mph - N/A Rain Light Rain
10:35 AM 47.1 °F - 43.2 °F 86% 30.19 in 10.0 mi SE 8.1 mph - 0.01 in Rain Light Rain
10:55 AM 47.3 °F - 43.5 °F 87% 30.18 in 7.0 mi SE 6.9 mph - 0.03 in Rain Rain
11:15 AM 47.5 °F - 43.7 °F 87% 30.18 in 7.0 mi SSE 5.8 mph - 0.02 in Rain Light Rain
11:35 AM 47.5 °F - 43.9 °F 87% 30.17 in 7.0 mi SSE 6.9 mph - 0.03 in Rain Rain
11:55 AM 47.7 °F - 44.6 °F 89% 30.17 in 5.0 mi South 3.5 mph - 0.07 in Rain Rain
12:15 PM 48.0 °F - 45.0 °F 89% 30.17 in 4.0 mi South 4.6 mph - 0.05 in Rain Rain
12:35 PM 48.2 °F - 45.1 °F 89% 30.16 in 3.0 mi SSE 4.6 mph - 0.11 in Rain Rain
12:55 PM 48.2 °F - 45.5 °F 90% 30.16 in 3.0 mi SSE 3.5 mph - 0.18 in Rain Heavy Rain
1:15 PM 48.2 °F - 45.5 °F 90% 30.16 in 2.5 mi South 3.5 mph - 0.06 in Rain Rain
1:35 PM 48.2 °F - 45.7 °F 91% 30.17 in 4.0 mi South 6.9 mph - 0.10 in Rain Rain
1:55 PM 48.6 °F - 46.0 °F 91% 30.17 in 2.5 mi South 6.9 mph - 0.13 in Rain Rain
2:15 PM 48.7 °F - 46.2 °F 91% 30.16 in 3.0 mi SSE 6.9 mph - 0.02 in Rain Rain
2:35 PM 49.1 °F - 46.6 °F 91% 30.15 in 3.0 mi SSE 4.6 mph - 0.07 in Rain Rain
2:55 PM 49.1 °F - 46.8 °F 92% 30.15 in 4.0 mi SE 5.8 mph - 0.10 in Rain Light Rain
3:15 PM 49.3 °F - 46.8 °F 91% 30.15 in 5.0 mi SE 6.9 mph - N/A Rain Light Rain
3:35 PM 49.3 °F - 46.8 °F 91% 30.15 in 5.0 mi SE 6.9 mph - 0.01 in Rain Light Rain
3:55 PM 49.3 °F - 46.8 °F 91% 30.15 in 5.0 mi SSE 6.9 mph - 0.01 in   Overcast
4:15 PM 49.5 °F - 46.9 °F 91% 30.15 in 5.0 mi SSE 9.2 mph - N/A Rain Light Rain
4:35 PM 49.5 °F - 46.9 °F 91% 30.16 in 5.0 mi SSE 6.9 mph - N/A Rain Light Rain
4:55 PM 49.6 °F - 47.3 °F 92% 30.15 in 5.0 mi SE 6.9 mph - N/A   Overcast
5:15 PM 49.8 °F - 47.3 °F 91% 30.16 in 5.0 mi SSE 4.6 mph - N/A Rain Light Rain
5:35 PM 50.0 °F - 47.5 °F 91% 30.16 in 3.0 mi SSE 5.8 mph - N/A Rain Light Rain
5:55 PM 50.0 °F - 47.5 °F 91% 30.16 in 2.5 mi SSE 5.8 mph - N/A Rain Light Rain
6:15 PM 50.0 °F - 47.7 °F 92% 30.17 in 2.5 mi South 5.8 mph - N/A Rain Light Rain
6:35 PM 50.0 °F - 47.8 °F 92% 30.17 in 2.5 mi South 5.8 mph - N/A Rain Light Rain
6:55 PM 50.2 °F - 48.0 °F 92% 30.18 in 2.5 mi SSW 3.5 mph - N/A Rain Light Rain
7:15 PM 50.4 °F - 48.2 °F 92% 30.17 in 2.0 mi Calm Calm - N/A Rain Light Rain
7:35 PM 50.4 °F - 48.2 °F 92% 30.18 in 1.5 mi Calm Calm - 0.01 in Rain Light Rain
7:55 PM 50.4 °F - 48.2 °F 92% 30.18 in 1.2 mi Calm Calm - 0.02 in Rain Light Rain
8:15 PM 50.4 °F - 48.2 °F 92% 30.19 in 1.2 mi Calm Calm - N/A Rain Light Rain
8:35 PM 50.4 °F - 48.2 °F 92% 30.19 in 1.2 mi Calm Calm - 0.01 in Rain Light Rain
8:55 PM 50.4 °F - 48.2 °F 92% 30.19 in 0.8 mi Calm Calm - 0.01 in Rain Light Rain
9:15 PM 50.4 °F - 48.4 °F 93% 30.18 in 1.0 mi Calm Calm - 0.01 in Rain Light Rain
9:35 PM 50.4 °F - 48.4 °F 93% 30.19 in 1.0 mi Calm Calm - 0.01 in Rain Light Rain
9:55 PM 50.2 °F - 48.2 °F 93% 30.19 in 0.8 mi Calm Calm - 0.01 in Rain Light Rain
10:15 PM 50.2 °F - 48.2 °F 93% 30.19 in 0.5 mi Calm Calm - N/A Fog Fog
10:35 PM 50.0 °F - 47.8 °F 92% 30.20 in 0.5 mi Calm Calm - N/A Fog Fog
10:55 PM 50.0 °F - 48.2 °F 94% 30.20 in 0.8 mi Calm Calm - N/A   Overcast
11:15 PM 50.0 °F - 48.0 °F 93% 30.19 in 0.5 mi Calm Calm - N/A Fog Fog
11:35 PM 50.0 °F - 48.2 °F 94% 30.19 in 0.5 mi Calm Calm - N/A Fog Fog
11:55 PM 50.0 °F - 48.0 °F 93% 30.18 in 0.5 mi Calm Calm - N/A Fog Fog